Showing default

FLOCK 4H 32, 66735

Orbit data source: Space-Track

FLOCK 4H 32, 66735 is a payload satellite owned by Planet (US) in SSO that was launched on Fri, 28 Nov 2025 UTC via an FALCON 9 launch vehicle from the Air Force Western Test Range (AFWTR). Payload-class satellites include a variety of spacecraft equipped with specific instruments for various scientific and technological missions. These include communications satellites like Starlink; space stations such as the ISS; scientific satellites like the Hubble; Earth observation satellites from companies like Planet Labs, Umbra, and HawkEye 360; GPS; miniature CubeSats for education and research; and military/defense satellites.

Loading next visibility...
Identifier
66735, 2025-276BX
Orbit
SSO
Country
Flag of USUS
Related business
Manufacturer
Planet
Mission
Operational Commercial Imaging
Bus & Motor
CUBESAT 3U, Unknown motor
Mass
5.7 kg wet, 5.7 kg dry
Launch date (UTC)
2025-11-28 (2 months ago)
Launch vehicle
FALCON 9
Launch site
Air Force Western Test Range (AFWTR)
Object type
Payload
Rocket body
Debris
Shape & HBR
Box + 2 Pan, 1.0 m
Radar Cross Section
0.072 m²

Expand to show TLE details & history
Last TLE update: 6 hours ago

TLE from 6 hours ago
0 FLOCK 4H 32
1 66735U 25276BX  26035.15217509  .00008977  00000-0  44487-3 0  9996
2 66735  97.4359 110.9783 0006055 108.6225 251.5667 15.17962815 10227
Epoch: 2026-02-04T03:39Z
TLE epoch observation values (Epoch: 2026-02-04T03:39:07.927Z)
Latitude
-0.00003°
Longitude
-78.12759°
Altitude
516.407 km
Speed
7.605 km/s
True Right ascension
07h 23m 54s
True Declination
0° 00' 00"
Sunlit
Object was in full shadow at epoch
Visualization orbit readout
Latitude
Unknown
Longitude
Unknown
Altitude
Unknown
Speed
Unknown
Apparent Right ascension
Unknown
Apparent Declination
Unknown
Sunlit
N/A
Visualization observer readout
Local Sidereal Time
11:54:43
Azimuth
Unknown
Elevation
Unknown
Doppler factor
Unknown
Orbital elements
Apogee altitude
513.138 km
Perigee altitude
504.798 km
Semi-major axis
6,887.105 km
Eccentricity
0.00061
Inclination
97.4359°
RAAN
110.9783°
Arg. of periapsis
108.6225°
True anomaly
251.50089°
Mean anomaly
251.5667°
Eccentric anomaly
251.53379°
Mean motion
3.79742 °/min
Orbital period
94.8 mins
BSTAR
0.00044487
Loading maneuver chart data...
Computing Atmospheric mass density...
Loading historical data...
Loading historical data...
Loading historical data...
Loading historical data...
Loading historical data...
Loading historical data...
Loading historical data...

Documentation

Showing up to 5 results
|